Wind_Speed
25 25 24 24 24 26 26 25 25 27 29 30 30 29 28 28 28 29 30 30 32 32 33 33 34 34 34 35 36 36 36 37 37 37 37 38 37 37 36 37 38 38 38
24 25 26 25 25 26 26 26 27 27 27 28 28 28 28 28 28 28 29 29 29 30 31 32 32 32 33 34 34 35 36 36 37 37 38 38 38 38 38 38 38 38 38
23 23 24 24 25 25 26 27 27 27 27 27 28 29 28 28 28 28 28 29 29 30 31 32 33 33 34 35 36 35 35 36 36 36 36 37 38 37 37 38 38 38 38
23 24 24 24 25 26 27 28 28 28 28 29 29 30 30 29 30 29 29 30 30 31 31 32 34 33 34 35 35 36 36 37 38 38 38 38 38 39 38 37 38 39 39
24 24 25 26 26 27 28 28 28 29 29 29 30 30 30 30 30 30 30 31 31 31 32 33 34 34 34 35 36 37 37 37 38 38 38 39 39 38 37 37 38 39 40
25 25 26 27 27 28 29 29 29 29 29 29 30 31 31 30 30 31 32 32 32 32 33 34 35 35 35 35 35 36 36 37 37 37 38 39 39 39 38 38 38 39 40
25 25 26 27 28 29 29 29 30 30 30 31 31 31 32 31 31 31 31 33 34 35 35 35 36 35 35 35 35 36 36 36 36 36 37 38 38 39 39 40 40 40 40
26 26 27 28 28 29 30 30 30 31 31 32 32 32 32 32 32 32 32 32 33 34 35 36 36 36 36 36 35 35 35 35 36 36 37 37 38 39 40 41 41 41 41
27 28 28 29 29 30 31 31 31 32 33 33 33 34 34 34 35 35 35 34 34 34 34 35 36 37 36 36 35 35 35 36 36 36 37 38 39 40 40 41 41 41 40
28 29 30 30 31 32 32 33 34 34 35 36 36 37 37 37 37 37 38 38 37 36 36 36 36 37 37 37 37 37 37 38 37 37 38 38 39 39 40 40 41 41 41
29 30 31 32 33 33 34 35 36 36 37 38 38 39 39 39 39 39 39 40 40 39 38 38 39 39 39 39 39 39 39 39 39 39 39 39 39 39 40 40 41 42 42
31 32 33 34 34 35 36 37 38 38 39 39 40 40 41 41 41 41 41 42 42 42 42 42 41 41 41 41 40 40 40 40 40 40 39 39 39 39 40 40 40 41 42
32 33 34 35 36 36 36 37 38 38 39 39 40 41 41 42 42 42 42 42 42 43 43 43 43 43 43 43 42 42 42 41 40 40 40 40 39 39 40 40 41 41 42
33 34 34 35 36 37 37 38 39 39 40 40 41 41 41 42 42 42 42 42 42 42 42 43 43 43 43 43 43 43 43 42 41 40 40 40 40 40 40 40 41 41 41
35 36 36 37 37 38 38 39 40 41 41 42 42 42 42 42 43 43 43 43 42 42 43 43 43 43 43 43 43 43 42 42 41 41 40 40 40 40 40 40 40 41 41
38 38 39 39 39 40 40 41 42 42 43 43 43 44 44 44 44 44 45 45 45 44 44 44 44 44 43 43 43 43 42 42 42 42 41 41 40 40 40 40 41 42 42
40 40 40 40 41 42 42 43 44 44 44 44 44 45 45 45 46 46 46 46 46 46 46 46 45 45 45 44 44 44 44 43 43 43 42 42 42 42 42 42 42 42 43
42 41 42 42 43 44 44 45 45 45 46 46 46 46 47 47 47 47 47 47 47 47 47 47 47 47 46 46 45 45 45 44 44 44 44 44 44 44 43 43 43 43 43
43 43 43 43 44 44 45 46 46 47 47 47 47 47 48 49 48 48 48 48 48 48 48 48 48 48 48 47 47 47 46 46 45 45 45 44 44 44 44 43 42 42 42
45 45 45 45 45 45 46 47 47 48 49 49 50 50 50 50 50 50 49 49 49 49 49 49 49 49 49 49 49 48 47 46 45 45 45 45 45 45 44 43 43 42 42
46 47 47 46 46 47 48 48 49 50 50 51 51 51 51 51 51 51 51 51 50 50 50 50 50 50 50 49 49 49 48 47 47 47 46 46 46 46 45 44 44 43 43
47 47 47 47 47 48 49 49 50 51 51 51 51 52 52 52 52 52 52 51 51 51 51 51 50 50 50 50 50 50 49 49 48 47 47 47 47 46 45 44 44 44 44
49 49 49 49 49 50 50 50 50 51 51 51 51 51 52 52 52 52 51 51 51 51 51 51 50 49 49 49 49 50 50 49 48 47 47 47 47 47 46 45 44 44 44
51 51 52 51 51 51 52 52 51 51 52 52 51 51 51 52 52 52 51 51 51 51 51 50 50 49 49 49 49 49 49 49 49 48 48 48 48 47 46 45 44 44 45
54 54 54 54 53 53 53 52 52 53 53 53 52 52 51 52 51 51 51 51 51 50 50 49 49 49 48 48 49 49 49 49 48 48 48 48 47 46 46 45 44 44 44
55 56 55 55 55 54 54 53 53 54 54 53 53 52 51 51 51 50 50 50 50 50 49 49 49 49 48 48 48 48 48 48 48 48 48 47 46 46 45 45 44 44 43
Wind_Direction
246 246 249 251 252 250 248 245 248 250 251 253 253 252 252 252 253 254 254 256 258 260 261 262 262 263 263 264 265 266 266 267 268 268 268 267 268 268 268 268 268 270 271
250 251 252 254 254 252 250 250 253 255 256 260 259 256 255 256 257 258 257 259 260 260 262 263 266 268 267 267 268 269 268 269 270 270 269 267 267 267 267 268 268 268 269
254 255 254 255 256 254 252 253 255 256 256 257 258 258 260 259 260 264 265 264 264 265 267 267 267 270 271 271 272 273 271 271 271 270 271 269 267 266 267 267 267 267 268
255 255 255 256 256 255 254 253 253 254 254 254 256 257 259 261 261 263 266 267 266 266 268 269 270 271 273 273 274 275 275 275 274 274 273 272 271 268 267 266 267 268 268
255 254 255 256 257 257 256 254 253 253 254 255 256 259 260 262 262 262 264 266 267 266 267 268 269 270 272 273 274 275 276 276 276 274 273 273 272 272 270 267 266 268 269
254 254 254 255 255 256 256 255 254 254 254 255 257 259 261 262 264 264 265 266 267 268 268 268 268 269 270 271 274 275 276 276 276 274 273 272 272 271 271 271 269 269 270
250 252 253 254 255 256 255 255 255 254 254 255 257 258 261 263 264 266 267 268 268 268 270 270 269 270 270 271 274 274 275 275 275 275 274 272 270 270 271 271 271 270 271
252 253 255 256 257 256 255 255 255 255 256 256 257 259 261 263 265 267 270 271 271 272 271 271 271 271 271 273 274 275 275 275 275 276 275 273 271 271 271 271 270 270 271
255 254 255 256 257 257 256 255 256 258 258 259 259 261 263 264 266 267 269 270 272 273 272 272 272 273 274 275 276 276 276 276 276 277 277 275 274 273 272 271 272 271 271
258 256 256 257 258 258 256 256 258 260 261 261 262 263 265 267 268 269 270 270 272 272 273 272 273 274 274 275 276 276 276 277 276 276 276 276 275 274 274 274 273 273 273
260 259 258 258 259 260 260 259 260 261 263 263 265 266 267 268 269 270 270 271 271 272 272 272 274 274 275 275 276 276 276 276 276 276 276 277 277 276 275 274 273 273 274
262 261 260 260 261 261 261 261 261 263 264 265 265 267 268 269 270 271 271 271 272 272 272 273 273 273 274 275 275 275 276 276 276 276 276 276 276 276 275 274 273 274 274
265 264 262 262 263 263 263 263 264 265 266 266 266 267 268 269 270 272 273 273 274 274 273 273 273 273 273 274 275 275 275 276 276 276 276 276 276 276 275 274 274 274 274
267 267 266 265 265 264 264 265 266 266 267 267 268 269 270 271 272 273 274 274 275 274 274 274 274 274 273 274 274 275 275 275 275 275 276 276 276 276 275 275 274 273 273
268 268 268 267 266 266 265 266 267 267 268 269 270 270 271 272 273 273 273 274 274 273 274 274 274 274 273 273 274 274 274 274 274 275 276 276 276 276 276 275 274 274 274
269 270 269 269 268 268 267 267 268 269 269 270 271 271 272 272 273 273 274 274 274 274 273 273 274 274 273 273 273 273 273 273 273 274 275 275 276 276 276 275 275 275 275
271 271 270 270 270 269 269 269 269 270 270 271 271 272 273 273 274 274 275 275 274 274 274 274 273 273 273 272 271 271 271 271 271 272 272 274 275 275 276 276 276 276 275
271 272 271 271 271 271 271 270 270 270 271 271 272 272 273 273 274 274 274 274 274 274 274 274 273 273 272 272 271 271 271 270 270 271 271 272 273 274 274 275 275 276 276
270 272 272 272 271 272 272 272 272 272 272 273 273 273 273 274 274 274 273 274 273 273 273 274 273 273 272 271 270 270 270 270 270 270 270 270 271 272 273 274 274 274 274
271 272 272 273 272 272 273 273 273 273 273 273 273 273 274 274 274 274 274 274 274 274 273 273 273 271 271 270 270 270 270 269 269 269 269 270 270 271 272 272 272 273 273
271 272 273 273 273 273 273 273 273 273 273 273 273 273 274 274 274 275 275 275 274 274 274 273 273 271 270 269 268 268 268 268 268 267 268 269 270 270 271 271 271 271 271
271 271 273 274 274 274 274 274 274 274 274 274 274 274 274 274 275 275 275 275 274 274 274 273 272 271 270 268 268 267 267 267 267 267 268 268 269 270 270 270 270 270 271
271 271 273 274 274 274 275 276 275 275 275 275 274 274 274 275 275 276 276 275 274 274 274 273 272 270 269 268 267 267 267 267 267 266 267 267 268 269 269 269 269 269 270
272 272 273 274 274 274 276 276 276 276 275 275 275 275 276 276 276 276 276 276 275 275 274 273 271 269 269 269 268 268 267 266 266 266 266 266 267 267 267 268 268 269 271
273 273 274 274 275 275 276 276 276 275 276 276 276 276 276 276 276 276 276 276 276 276 274 273 271 270 269 268 268 267 267 266 266 265 265 265 265 266 267 267 268 269 271
274 274 275 275 276 276 276 276 275 275 276 276 276 276 276 276 276 275 275 276 276 275 275 273 272 271 270 269 268 267 267 266 266 265 264 264 264 265 265 266 267 268 270
Height
5727 5729 5731 5732 5733 5734 5736 5738 5740 5742 5744 5745 5747 5749 5750 5752 5755 5756 5757 5758 5758 5759 5760 5761 5762 5763 5764 5764 5765 5766 5766 5767 5767 5768 5769 5770 5770 5771 5772 5773 5775 5775 5776
5724 5726 5727 5729 5730 5731 5733 5734 5736 5738 5739 5740 5741 5743 5744 5746 5748 5749 5750 5751 5752 5752 5753 5753 5754 5755 5756 5756 5757 5757 5758 5759 5759 5759 5759 5760 5762 5762 5763 5764 5765 5766 5767
5721 5722 5723 5724 5726 5727 5728 5730 5731 5732 5733 5735 5736 5738 5738 5739 5742 5743 5744 5744 5745 5746 5746 5746 5746 5747 5748 5748 5749 5749 5750 5750 5750 5750 5750 5751 5753 5754 5755 5755 5755 5756 5757
5717 5718 5719 5720 5721 5722 5723 5724 5726 5727 5728 5729 5731 5732 5733 5734 5736 5736 5737 5738 5738 5738 5739 5739 5739 5739 5740 5740 5741 5741 5741 5741 5741 5741 5741 5742 5743 5744 5746 5746 5746 5747 5748
5712 5713 5714 5715 5716 5717 5717 5719 5720 5721 5722 5724 5725 5726 5727 5728 5728 5729 5730 5731 5731 5731 5732 5732 5732 5732 5732 5733 5733 5733 5733 5732 5732 5732 5732 5732 5733 5734 5735 5737 5738 5738 5739
5707 5708 5708 5709 5710 5711 5712 5713 5714 5715 5716 5717 5718 5719 5720 5721 5722 5722 5723 5723 5724 5724 5724 5724 5724 5725 5725 5725 5725 5725 5724 5723 5723 5723 5723 5723 5724 5725 5725 5727 5729 5729 5730
5701 5702 5703 5703 5704 5705 5706 5707 5707 5708 5710 5711 5711 5712 5713 5714 5715 5715 5716 5716 5716 5716 5716 5716 5716 5716 5716 5716 5716 5716 5715 5715 5715 5714 5714 5714 5715 5715 5716 5717 5718 5720 5721
5695 5696 5696 5697 5698 5698 5699 5700 5701 5702 5703 5704 5704 5705 5706 5706 5707 5708 5708 5708 5708 5708 5708 5708 5708 5708 5708 5708 5708 5707 5707 5706 5706 5705 5705 5705 5706 5706 5706 5707 5708 5709 5711
5689 5689 5690 5690 5691 5692 5692 5693 5694 5695 5696 5696 5697 5697 5698 5698 5699 5699 5700 5700 5700 5700 5700 5699 5699 5699 5699 5699 5699 5699 5698 5697 5697 5697 5697 5697 5697 5697 5697 5697 5698 5699 5700
5682 5682 5683 5683 5683 5684 5685 5685 5686 5687 5688 5688 5689 5689 5689 5690 5690 5690 5690 5690 5690 5691 5691 5691 5691 5691 5691 5690 5690 5690 5689 5689 5689 5688 5688 5688 5687 5687 5687 5688 5688 5688 5689
5675 5675 5675 5675 5675 5675 5676 5677 5677 5678 5679 5679 5680 5680 5680 5681 5681 5681 5681 5681 5681 5681 5681 5681 5681 5681 5681 5681 5681 5681 5680 5680 5679 5679 5679 5678 5678 5678 5677 5677 5678 5678 5678
5667 5667 5667 5667 5667 5667 5667 5667 5668 5668 5669 5670 5670 5670 5670 5671 5671 5671 5671 5671 5671 5671 5671 5671 5671 5671 5671 5670 5670 5670 5670 5670 5670 5669 5669 5669 5668 5668 5668 5667 5667 5668 5668
5658 5658 5658 5658 5658 5658 5658 5658 5658 5659 5659 5659 5660 5660 5660 5660 5660 5660 5660 5660 5660 5659 5659 5659 5659 5659 5660 5660 5660 5659 5659 5659 5659 5659 5659 5659 5658 5658 5657 5657 5657 5657 5657
5649 5649 5649 5649 5648 5648 5648 5648 5648 5648 5649 5649 5649 5649 5650 5650 5650 5649 5649 5649 5648 5648 5647 5647 5647 5647 5648 5648 5648 5648 5648 5648 5648 5648 5648 5648 5648 5647 5647 5646 5646 5646 5646
5639 5639 5639 5639 5638 5638 5638 5638 5638 5638 5638 5638 5638 5638 5638 5638 5638 5638 5637 5637 5636 5636 5636 5635 5635 5635 5636 5636 5636 5636 5637 5637 5637 5637 5637 5637 5637 5636 5636 5635 5635 5635 5635
5628 5628 5628 5627 5627 5627 5627 5627 5627 5627 5626 5626 5626 5626 5626 5626 5626 5625 5625 5624 5624 5624 5623 5623 5623 5623 5623 5623 5624 5624 5624 5625 5625 5625 5626 5625 5625 5625 5625 5624 5624 5624 5624
5617 5617 5616 5616 5615 5615 5615 5615 5615 5614 5614 5614 5614 5614 5613 5613 5613 5612 5612 5611 5611 5611 5611 5610 5610 5610 5610 5610 5611 5611 5612 5612 5613 5613 5613 5614 5614 5613 5613 5613 5612 5612 5612
5604 5604 5604 5603 5603 5602 5602 5602 5602 5601 5601 5601 5601 5601 5600 5600 5599 5599 5598 5598 5597 5597 5597 5597 5597 5597 5597 5597 5597 5598 5599 5599 5600 5601 5601 5601 5601 5601 5601 5601 5601 5601 5600
5592 5591 5591 5590 5590 5589 5589 5589 5588 5588 5587 5587 5587 5587 5586 5585 5585 5584 5584 5584 5583 5583 5583 5583 5583 5583 5583 5583 5584 5584 5585 5586 5587 5588 5588 5589 5589 5589 5589 5589 5589 5589 5589
5578 5578 5577 5577 5577 5576 5575 5575 5575 5574 5573 5573 5572 5572 5571 5570 5570 5570 5569 5569 5568 5568 5568 5569 5569 5569 5569 5569 5569 5570 5571 5572 5573 5574 5575 5575 5576 5576 5576 5576 5577 5577 5577
5564 5564 5564 5563 5563 5562 5561 5561 5560 5560 5559 5558 5557 5557 5556 5555 5555 5554 5554 5553 5553 5553 5553 5553 5553 5553 5553 5554 5554 5555 5556 5558 5559 5560 5561 5562 5562 5562 5563 5563 5564 5564 5564
5550 5550 5550 5549 5548 5547 5547 5546 5546 5544 5543 5543 5542 5541 5540 5540 5539 5539 5538 5538 5537 5537 5537 5537 5538 5538 5538 5538 5539 5539 5541 5542 5544 5546 5547 5548 5548 5549 5549 5549 5550 5550 5551
5536 5536 5535 5535 5534 5533 5531 5531 5530 5529 5528 5528 5527 5526 5525 5524 5523 5523 5522 5522 5522 5521 5521 5521 5522 5522 5522 5522 5523 5524 5525 5527 5529 5531 5532 5533 5534 5534 5535 5536 5536 5537 5537
5521 5521 5520 5520 5519 5518 5516 5515 5514 5513 5512 5512 5511 5510 5509 5508 5508 5507 5506 5506 5506 5505 5505 5505 5505 5506 5507 5507 5508 5508 5509 5511 5513 5515 5516 5518 5519 5520 5521 5522 5522 5523 5523
5505 5505 5504 5504 5503 5502 5501 5499 5498 5497 5496 5496 5495 5495 5494 5493 5492 5491 5491 5490 5490 5488 5488 5489 5489 5490 5491 5492 5492 5493 5494 5495 5497 5499 5500 5502 5504 5505 5506 5507 5508 5509 5510
5489 5488 5487 5487 5486 5485 5484 5483 5482 5481 5480 5480 5479 5478 5477 5477 5476 5476 5476 5474 5474 5473 5472 5472 5472 5473 5474 5475 5476 5477 5478 5480 5481 5483 5485 5487 5489 5490 5492 5493 5494 5495 5496